Time,TemperatureF,DewpointF,PressureIn,WindDirection,WindDirectionDegrees,WindSpeedMPH,WindSpeedGustMPH,Humidity,HourlyPrecipIn,Conditions,Clouds,dailyrainin,SolarRadiationWatts/m^2,SoftwareType,DateUTC
2013-10-17 00:03:00,49.3,46.5,29.73,WSW,250,3.0,7.0,90,0.00,CLR,CLR,0.00,0.0,WeatherDisplay:10.37,2013-10-17 05:03:00,
2013-10-17 00:08:00,49.4,46.6,29.73,WSW,250,3.0,5.0,90,0.00,CLR,CLR,0.00,0.0,WeatherDisplay:10.37,2013-10-17 05:08:00,
2013-10-17 00:13:00,49.5,46.7,29.73,WSW,253,3.0,6.0,90,0.00,CLR,CLR,0.00,0.0,WeatherDisplay:10.37,2013-10-17 05:13:00,
2013-10-17 00:18:00,49.7,46.9,29.73,WSW,252,3.0,5.0,90,0.00,CLR,CLR,0.00,0.0,WeatherDisplay:10.37,2013-10-17 05:18:00,
2013-10-17 00:23:00,49.8,47.0,29.73,WSW,250,2.0,5.0,90,0.00,CLR,CLR,0.00,0.0,WeatherDisplay:10.37,2013-10-17 05:23:00,
2013-10-17 00:28:00,49.9,47.1,29.73,WSW,251,3.0,5.0,90,0.00,CLR,CLR,0.00,0.0,WeatherDisplay:10.37,2013-10-17 05:28:00,
2013-10-17 00:33:00,49.9,46.8,29.73,WSW,249,3.0,5.0,89,0.00,CLR,CLR,0.00,0.0,WeatherDisplay:10.37,2013-10-17 05:33:00,
2013-10-17 00:38:00,50.0,46.9,29.72,WSW,247,3.0,5.0,89,0.00,CLR,CLR,0.00,0.0,WeatherDisplay:10.37,2013-10-17 05:38:00,
2013-10-17 00:43:00,50.0,46.9,29.72,WSW,245,2.0,5.0,89,0.00,CLR,CLR,0.00,0.0,WeatherDisplay:10.37,2013-10-17 05:43:00,
2013-10-17 00:48:00,50.0,46.9,29.72,WSW,245,3.0,5.0,89,0.00,CLR,CLR,0.00,0.0,WeatherDisplay:10.37,2013-10-17 05:48:00,
2013-10-17 00:53:00,50.0,46.9,29.72,WSW,247,3.0,6.0,89,0.00,CLR,CLR,0.00,0.0,WeatherDisplay:10.37,2013-10-17 05:53:00,
2013-10-17 00:58:00,50.0,46.9,29.72,WSW,246,3.0,6.0,89,0.00,CLR,CLR,0.00,0.0,WeatherDisplay:10.37,2013-10-17 05:58:00,
2013-10-17 01:03:00,50.0,46.9,29.72,WSW,247,3.0,6.0,89,0.00,CLR,CLR,0.00,0.0,WeatherDisplay:10.37,2013-10-17 06:03:00,
2013-10-17 01:08:00,50.1,47.0,29.72,WSW,248,5.0,7.0,89,0.00,CLR,CLR,0.00,0.0,WeatherDisplay:10.37,2013-10-17 06:08:00,
2013-10-17 01:13:00,50.1,47.0,29.72,WSW,247,2.0,7.0,89,0.00,CLR,CLR,0.00,0.0,WeatherDisplay:10.37,2013-10-17 06:13:00,
2013-10-17 01:18:00,50.1,46.7,29.72,WSW,249,5.0,6.0,88,0.00,CLR,CLR,0.00,0.0,WeatherDisplay:10.37,2013-10-17 06:18:00,
2013-10-17 01:28:00,50.1,46.7,29.72,WSW,251,3.0,7.0,88,0.00,CLR,CLR,0.00,0.0,WeatherDisplay:10.37,2013-10-17 06:28:00,
2013-10-17 01:38:00,50.1,46.7,29.72,WSW,249,3.0,5.0,88,0.00,CLR,CLR,0.00,0.0,WeatherDisplay:10.37,2013-10-17 06:38:00,
2013-10-17 01:48:00,50.1,47.0,29.72,WSW,248,2.0,6.0,89,0.00,CLR,CLR,0.00,0.0,WeatherDisplay:10.37,2013-10-17 06:48:00,
2013-10-17 01:53:00,50.0,46.9,29.72,WSW,246,3.0,5.0,89,0.00,CLR,CLR,0.00,0.0,WeatherDisplay:10.37,2013-10-17 06:53:00,
2013-10-17 01:58:00,50.0,46.9,29.72,WSW,249,3.0,5.0,89,0.00,CLR,CLR,0.00,0.0,WeatherDisplay:10.37,2013-10-17 06:58:00,
2013-10-17 02:03:00,50.0,46.9,29.71,WSW,251,2.0,5.0,89,0.00,CLR,CLR,0.00,0.0,WeatherDisplay:10.37,2013-10-17 07:03:00,
2013-10-17 02:08:00,49.9,46.8,29.71,WSW,252,2.0,3.0,89,0.00,CLR,CLR,0.00,0.0,WeatherDisplay:10.37,2013-10-17 07:08:00,
2013-10-17 02:13:00,49.9,46.8,29.71,WSW,247,2.0,5.0,89,0.00,CLR,CLR,0.00,0.0,WeatherDisplay:10.37,2013-10-17 07:13:00,
2013-10-17 02:18:00,49.9,46.8,29.71,WSW,246,3.0,5.0,89,0.00,CLR,CLR,0.00,0.0,WeatherDisplay:10.37,2013-10-17 07:18:00,
2013-10-17 02:28:00,49.9,46.8,29.71,WSW,252,2.0,4.0,89,0.00,CLR,CLR,0.00,0.0,WeatherDisplay:10.37,2013-10-17 07:28:00,
2013-10-17 02:33:00,49.9,46.8,29.71,WSW,245,2.0,5.0,89,0.00,CLR,CLR,0.00,0.0,WeatherDisplay:10.37,2013-10-17 07:33:00,
2013-10-17 02:38:00,49.9,46.8,29.71,WSW,250,3.0,5.0,89,0.00,CLR,CLR,0.00,0.0,WeatherDisplay:10.37,2013-10-17 07:38:00,
2013-10-17 02:43:00,49.9,46.8,29.71,WSW,251,3.0,5.0,89,0.00,CLR,CLR,0.00,0.0,WeatherDisplay:10.37,2013-10-17 07:43:00,
2013-10-17 02:48:00,49.8,46.7,29.70,WSW,247,2.0,4.0,89,0.00,CLR,CLR,0.00,0.0,WeatherDisplay:10.37,2013-10-17 07:48:00,
2013-10-17 02:53:00,49.8,46.7,29.70,WSW,248,1.0,3.0,89,0.00,CLR,CLR,0.00,0.0,WeatherDisplay:10.37,2013-10-17 07:53:00,
2013-10-17 02:58:00,49.7,46.6,29.70,WSW,249,2.0,3.0,89,0.00,CLR,CLR,0.00,0.0,WeatherDisplay:10.37,2013-10-17 07:58:00,
2013-10-17 03:03:00,49.7,46.6,29.70,WSW,249,1.0,4.0,89,0.00,CLR,CLR,0.00,0.0,WeatherDisplay:10.37,2013-10-17 08:03:00,
2013-10-17 03:08:00,49.7,46.6,29.70,WSW,254,2.0,4.0,89,0.00,CLR,CLR,0.00,0.0,WeatherDisplay:10.37,2013-10-17 08:08:00,
2013-10-17 03:13:00,49.7,46.9,29.70,WSW,254,2.0,5.0,90,0.00,CLR,CLR,0.00,0.0,WeatherDisplay:10.37,2013-10-17 08:13:00,
2013-10-17 03:18:00,49.7,46.6,29.70,WSW,258,2.0,4.0,89,0.00,CLR,CLR,0.00,0.0,WeatherDisplay:10.37,2013-10-17 08:18:00,
2013-10-17 03:23:00,49.6,46.5,29.69,West,264,1.0,4.0,89,0.00,CLR,CLR,0.00,0.0,WeatherDisplay:10.37,2013-10-17 08:23:00,
2013-10-17 03:28:00,49.6,46.5,29.69,West,274,2.0,4.0,89,0.00,CLR,CLR,0.00,0.0,WeatherDisplay:10.37,2013-10-17 08:28:00,
2013-10-17 03:33:00,49.6,46.5,29.69,WNW,283,2.0,4.0,89,0.00,CLR,CLR,0.00,0.0,WeatherDisplay:10.37,2013-10-17 08:33:00,
2013-10-17 03:38:00,49.6,46.5,29.69,West,270,2.0,5.0,89,0.00,CLR,CLR,0.00,0.0,WeatherDisplay:10.37,2013-10-17 08:38:00,
2013-10-17 03:43:00,49.6,46.5,29.69,West,260,2.0,4.0,89,0.00,CLR,CLR,0.00,0.0,WeatherDisplay:10.37,2013-10-17 08:43:00,
2013-10-17 03:48:00,49.6,46.8,29.69,West,264,2.0,4.0,90,0.00,CLR,CLR,0.00,0.0,WeatherDisplay:10.37,2013-10-17 08:48:00,
2013-10-17 03:53:00,49.6,46.5,29.70,WSW,257,3.0,5.0,89,0.00,CLR,CLR,0.00,0.0,WeatherDisplay:10.37,2013-10-17 08:53:00,
2013-10-17 03:58:00,49.6,46.5,29.70,WSW,255,2.0,5.0,89,0.00,CLR,CLR,0.00,0.0,WeatherDisplay:10.37,2013-10-17 08:58:00,
2013-10-17 04:03:00,49.6,46.8,29.70,WSW,257,3.0,5.0,90,0.00,CLR,CLR,0.00,0.0,WeatherDisplay:10.37,2013-10-17 09:03:00,
2013-10-17 04:08:00,49.6,46.8,29.70,WSW,255,2.0,5.0,90,0.00,CLR,CLR,0.00,0.0,WeatherDisplay:10.37,2013-10-17 09:08:00,
2013-10-17 04:13:00,49.5,46.7,29.69,West,262,2.0,5.0,90,0.00,CLR,CLR,0.00,0.0,WeatherDisplay:10.37,2013-10-17 09:13:00,
2013-10-17 04:18:00,49.5,46.7,29.69,West,279,2.0,4.0,90,0.00,CLR,CLR,0.00,0.0,WeatherDisplay:10.37,2013-10-17 09:18:00,
2013-10-17 04:23:00,49.5,46.7,29.69,West,279,2.0,4.0,90,0.00,CLR,CLR,0.00,0.0,WeatherDisplay:10.37,2013-10-17 09:23:00,
2013-10-17 04:28:00,49.4,46.6,29.69,West,275,2.0,3.0,90,0.00,CLR,CLR,0.00,0.0,WeatherDisplay:10.37,2013-10-17 09:28:00,
2013-10-17 04:33:00,49.4,46.6,29.69,West,273,1.0,4.0,90,0.00,CLR,CLR,0.00,0.0,WeatherDisplay:10.37,2013-10-17 09:33:00,
2013-10-17 04:38:00,49.3,46.8,29.69,West,272,2.0,4.0,91,0.00,CLR,CLR,0.00,0.0,WeatherDisplay:10.37,2013-10-17 09:38:00,
2013-10-17 04:43:00,49.1,46.6,29.69,West,272,2.0,4.0,91,0.00,CLR,CLR,0.00,0.0,WeatherDisplay:10.37,2013-10-17 09:43:00,
2013-10-17 04:48:00,49.0,46.8,29.69,West,272,1.0,4.0,92,0.00,CLR,CLR,0.00,0.0,WeatherDisplay:10.37,2013-10-17 09:48:00,
2013-10-17 04:53:00,48.8,46.6,29.69,West,272,2.0,4.0,92,0.00,CLR,CLR,0.00,0.0,WeatherDisplay:10.37,2013-10-17 09:53:00,
2013-10-17 04:58:00,48.7,46.8,29.69,West,271,1.0,4.0,93,0.00,CLR,CLR,0.00,0.0,WeatherDisplay:10.37,2013-10-17 09:58:00,
2013-10-17 05:03:00,48.6,46.7,29.69,West,271,1.0,4.0,93,0.00,CLR,CLR,0.00,0.0,WeatherDisplay:10.37,2013-10-17 10:03:00,
2013-10-17 05:08:00,48.5,46.6,29.68,West,271,1.0,3.0,93,0.00,CLR,CLR,0.00,0.0,WeatherDisplay:10.37,2013-10-17 10:08:00,
2013-10-17 05:13:00,48.4,46.5,29.68,West,271,2.0,3.0,93,0.00,CLR,CLR,0.00,0.0,WeatherDisplay:10.37,2013-10-17 10:13:00,
2013-10-17 05:18:00,48.3,46.7,29.68,West,271,2.0,4.0,94,0.00,CLR,CLR,0.00,0.0,WeatherDisplay:10.37,2013-10-17 10:18:00,
2013-10-17 05:23:00,48.3,46.7,29.68,West,271,1.0,4.0,94,0.01,RA,RA,0.01,0.0,WeatherDisplay:10.37,2013-10-17 10:23:00,
2013-10-17 05:28:00,48.2,46.6,29.67,West,271,2.0,3.0,94,0.00,RA,RA,0.01,0.0,WeatherDisplay:10.37,2013-10-17 10:28:00,
2013-10-17 05:33:00,48.2,46.5,29.67,West,271,1.0,3.0,94,0.00,CLR,CLR,0.01,0.0,WeatherDisplay:10.37,2013-10-17 10:33:00,
2013-10-17 05:38:00,48.1,46.5,29.66,West,271,0.0,1.0,94,0.00,CLR,CLR,0.01,0.0,WeatherDisplay:10.37,2013-10-17 10:38:00,
2013-10-17 05:43:00,48.1,46.7,29.67,West,271,1.0,2.0,95,0.00,CLR,CLR,0.01,0.0,WeatherDisplay:10.37,2013-10-17 10:43:00,
2013-10-17 05:48:00,48.0,46.7,29.67,West,271,1.0,3.0,95,0.00,CLR,CLR,0.01,0.0,WeatherDisplay:10.37,2013-10-17 10:48:00,
2013-10-17 05:53:00,48.0,46.6,29.67,West,271,1.0,3.0,95,0.00,CLR,CLR,0.01,0.0,WeatherDisplay:10.37,2013-10-17 10:53:00,
2013-10-17 05:58:00,48.0,46.6,29.67,West,271,2.0,4.0,95,0.00,CLR,CLR,0.01,0.0,WeatherDisplay:10.37,2013-10-17 10:58:00,
2013-10-17 06:08:00,48.0,46.6,29.67,West,271,2.0,4.0,95,0.00,CLR,CLR,0.01,0.0,WeatherDisplay:10.37,2013-10-17 11:08:00,
2013-10-17 06:13:00,48.0,46.9,29.66,West,271,2.0,3.0,96,0.00,CLR,CLR,0.01,0.0,WeatherDisplay:10.37,2013-10-17 11:13:00,
2013-10-17 06:18:00,48.0,46.9,29.67,West,271,2.0,4.0,96,0.00,CLR,CLR,0.01,0.0,WeatherDisplay:10.37,2013-10-17 11:18:00,
2013-10-17 06:23:00,48.0,46.9,29.67,West,264,3.0,5.0,96,0.01,RA,RA,0.02,0.0,WeatherDisplay:10.37,2013-10-17 11:23:00,
2013-10-17 06:28:00,47.9,46.8,29.67,WSW,256,2.0,4.0,96,0.00,RA,RA,0.02,0.0,WeatherDisplay:10.37,2013-10-17 11:28:00,
2013-10-17 06:33:00,47.9,46.8,29.66,WSW,253,2.0,4.0,96,0.00,CLR,CLR,0.02,0.0,WeatherDisplay:10.37,2013-10-17 11:33:00,
2013-10-17 06:38:00,47.9,46.8,29.66,WSW,252,1.0,3.0,96,0.00,CLR,CLR,0.02,0.0,WeatherDisplay:10.37,2013-10-17 11:38:00,
2013-10-17 06:43:00,47.9,46.8,29.67,WSW,252,1.0,3.0,96,0.01,RA,RA,0.03,0.0,WeatherDisplay:10.37,2013-10-17 11:43:00,
2013-10-17 06:48:00,47.8,46.7,29.67,WSW,252,2.0,3.0,96,0.00,RA,RA,0.03,0.0,WeatherDisplay:10.37,2013-10-17 11:48:00,
2013-10-17 06:53:00,47.8,46.7,29.67,WSW,252,1.0,3.0,96,0.00,CLR,CLR,0.03,0.0,WeatherDisplay:10.37,2013-10-17 11:53:00,
2013-10-17 06:58:00,47.8,46.7,29.67,WSW,251,2.0,4.0,96,0.00,CLR,CLR,0.03,0.0,WeatherDisplay:10.37,2013-10-17 11:58:00,
2013-10-17 07:03:00,47.7,46.6,29.67,SW,236,2.0,4.0,96,0.00,CLR,CLR,0.03,0.0,WeatherDisplay:10.37,2013-10-17 12:03:00,
2013-10-17 07:08:00,47.7,46.6,29.67,SW,227,5.0,6.0,96,0.00,CLR,CLR,0.03,0.0,WeatherDisplay:10.37,2013-10-17 12:08:00,
2013-10-17 07:13:00,47.7,46.6,29.67,SW,228,1.0,6.0,96,0.00,CLR,CLR,0.03,0.0,WeatherDisplay:10.37,2013-10-17 12:13:00,
2013-10-17 07:18:00,47.7,46.6,29.67,SW,226,2.0,4.0,96,0.00,CLR,CLR,0.03,0.0,WeatherDisplay:10.37,2013-10-17 12:18:00,
2013-10-17 07:23:00,47.7,46.6,29.67,SW,225,3.0,6.0,96,0.00,CLR,CLR,0.03,0.0,WeatherDisplay:10.37,2013-10-17 12:23:00,
2013-10-17 07:28:00,47.7,46.6,29.67,SW,224,2.0,5.0,96,0.00,CLR,CLR,0.03,0.0,WeatherDisplay:10.37,2013-10-17 12:28:00,
2013-10-17 07:33:00,47.7,46.6,29.67,SW,229,3.0,6.0,96,0.00,CLR,CLR,0.03,0.0,WeatherDisplay:10.37,2013-10-17 12:33:00,
2013-10-17 07:38:00,47.7,46.6,29.67,SW,225,3.0,6.0,96,0.00,CLR,CLR,0.03,0.0,WeatherDisplay:10.37,2013-10-17 12:38:00,
2013-10-17 07:43:00,47.7,46.6,29.67,SW,220,2.0,6.0,96,0.01,RA,RA,0.04,0.0,WeatherDisplay:10.37,2013-10-17 12:43:00,
2013-10-17 07:48:00,47.7,46.6,29.67,SW,233,5.0,8.0,96,0.00,RA,RA,0.04,0.0,WeatherDisplay:10.37,2013-10-17 12:48:00,
2013-10-17 07:53:00,47.7,46.6,29.67,WSW,237,5.0,8.0,96,0.00,CLR,CLR,0.04,0.0,WeatherDisplay:10.37,2013-10-17 12:53:00,
2013-10-17 07:58:00,47.8,46.7,29.67,WSW,237,5.0,6.0,96,0.00,CLR,CLR,0.04,0.0,WeatherDisplay:10.37,2013-10-17 12:58:00,
2013-10-17 08:03:00,47.8,46.7,29.67,WSW,240,5.0,6.0,96,0.00,CLR,CLR,0.04,0.0,WeatherDisplay:10.37,2013-10-17 13:03:00,
2013-10-17 08:08:00,47.8,46.7,29.67,WSW,237,5.0,7.0,96,0.01,RA,RA,0.05,0.0,WeatherDisplay:10.37,2013-10-17 13:08:00,
2013-10-17 08:13:00,47.8,46.7,29.67,WSW,242,3.0,8.0,96,0.00,RA,RA,0.05,0.0,WeatherDisplay:10.37,2013-10-17 13:13:00,
2013-10-17 08:18:00,47.8,46.7,29.67,WSW,247,7.0,9.0,96,0.00,CLR,CLR,0.05,0.0,WeatherDisplay:10.37,2013-10-17 13:18:00,
2013-10-17 08:23:00,47.8,46.7,29.67,WSW,243,6.0,9.0,96,0.00,CLR,CLR,0.05,0.0,WeatherDisplay:10.37,2013-10-17 13:23:00,
2013-10-17 08:28:00,47.7,46.6,29.67,WSW,245,7.0,9.0,96,0.00,CLR,CLR,0.05,0.0,WeatherDisplay:10.37,2013-10-17 13:28:00,
2013-10-17 08:33:00,47.7,46.6,29.67,WSW,249,6.0,10.0,96,0.00,CLR,CLR,0.05,0.0,WeatherDisplay:10.37,2013-10-17 13:33:00,
2013-10-17 08:38:00,47.7,46.6,29.68,WSW,249,8.0,10.0,96,0.00,CLR,CLR,0.05,0.0,WeatherDisplay:10.37,2013-10-17 13:38:00,
2013-10-17 08:43:00,47.8,46.7,29.67,WSW,246,7.0,10.0,96,0.00,CLR,CLR,0.05,0.0,WeatherDisplay:10.37,2013-10-17 13:43:00,
2013-10-17 08:48:00,47.9,46.8,29.67,WSW,247,6.0,9.0,96,0.00,CLR,CLR,0.05,0.0,WeatherDisplay:10.37,2013-10-17 13:48:00,
2013-10-17 08:53:00,48.1,47.0,29.67,WSW,249,5.0,10.0,96,0.00,CLR,CLR,0.05,0.0,WeatherDisplay:10.37,2013-10-17 13:53:00,
2013-10-17 08:58:00,48.2,47.1,29.67,WSW,251,7.0,12.0,96,0.00,CLR,CLR,0.05,0.0,WeatherDisplay:10.37,2013-10-17 13:58:00,
2013-10-17 09:03:00,48.2,47.1,29.67,WSW,249,6.0,12.0,96,0.00,CLR,CLR,0.05,0.0,WeatherDisplay:10.37,2013-10-17 14:03:00,
2013-10-17 09:08:00,48.2,47.1,29.67,WSW,252,6.0,12.0,96,0.00,CLR,CLR,0.05,0.0,WeatherDisplay:10.37,2013-10-17 14:08:00,
2013-10-17 09:13:00,48.3,47.2,29.67,WSW,251,6.0,12.0,96,0.00,CLR,CLR,0.05,0.0,WeatherDisplay:10.37,2013-10-17 14:13:00,
2013-10-17 09:18:00,48.3,47.2,29.67,WSW,250,6.0,9.0,96,0.01,RA,RA,0.06,0.0,WeatherDisplay:10.37,2013-10-17 14:18:00,
2013-10-17 09:23:00,48.3,47.2,29.68,WSW,249,7.0,10.0,96,0.00,RA,RA,0.06,0.0,WeatherDisplay:10.37,2013-10-17 14:23:00,
2013-10-17 09:28:00,48.1,47.0,29.68,WSW,247,7.0,10.0,96,0.00,CLR,CLR,0.06,0.0,WeatherDisplay:10.37,2013-10-17 14:28:00,
2013-10-17 09:33:00,48.1,47.0,29.68,WSW,246,7.0,12.0,96,0.01,RA,RA,0.07,0.0,WeatherDisplay:10.37,2013-10-17 14:33:00,
2013-10-17 09:38:00,48.1,47.0,29.68,WSW,243,7.0,9.0,96,0.00,RA,RA,0.07,0.0,WeatherDisplay:10.37,2013-10-17 14:38:00,
2013-10-17 09:43:00,48.3,47.2,29.68,WSW,250,6.0,12.0,96,0.00,CLR,CLR,0.07,0.0,WeatherDisplay:10.37,2013-10-17 14:43:00,
2013-10-17 09:48:00,48.3,47.2,29.67,WSW,252,5.0,10.0,96,0.00,CLR,CLR,0.07,0.0,WeatherDisplay:10.37,2013-10-17 14:48:00,
2013-10-17 09:53:00,48.5,47.4,29.67,WSW,248,7.0,10.0,96,0.00,CLR,CLR,0.07,0.0,WeatherDisplay:10.37,2013-10-17 14:53:00,
2013-10-17 09:58:00,48.4,47.3,29.67,WSW,247,7.0,12.0,96,0.00,CLR,CLR,0.07,0.0,WeatherDisplay:10.37,2013-10-17 14:58:00,
2013-10-17 10:03:00,48.4,47.4,29.67,WSW,245,7.0,9.0,96,0.00,CLR,CLR,0.07,0.0,WeatherDisplay:10.37,2013-10-17 15:03:00,
2013-10-17 10:08:00,48.5,47.4,29.67,WSW,248,8.0,12.0,96,0.00,CLR,CLR,0.07,0.0,WeatherDisplay:10.37,2013-10-17 15:08:00,
2013-10-17 10:13:00,48.5,47.4,29.67,WSW,254,8.0,12.0,96,0.00,CLR,CLR,0.07,0.0,WeatherDisplay:10.37,2013-10-17 15:13:00,
2013-10-17 10:18:00,48.5,47.1,29.67,WSW,253,8.0,12.0,95,0.00,CLR,CLR,0.07,0.0,WeatherDisplay:10.37,2013-10-17 15:18:00,
2013-10-17 10:23:00,48.5,47.1,29.67,WSW,256,6.0,12.0,95,0.00,CLR,CLR,0.07,0.0,WeatherDisplay:10.37,2013-10-17 15:23:00,
2013-10-17 10:28:00,48.5,47.1,29.67,West,259,7.0,10.0,95,0.00,CLR,CLR,0.07,0.0,WeatherDisplay:10.37,2013-10-17 15:28:00,
2013-10-17 10:33:00,48.6,47.2,29.67,WSW,256,6.0,12.0,95,0.00,CLR,CLR,0.07,0.0,WeatherDisplay:10.37,2013-10-17 15:33:00,
2013-10-17 10:38:00,48.7,47.4,29.67,WSW,253,8.0,14.0,95,0.00,CLR,CLR,0.07,0.0,WeatherDisplay:10.37,2013-10-17 15:38:00,
2013-10-17 10:43:00,48.9,47.5,29.67,WSW,254,9.0,15.0,95,0.00,CLR,CLR,0.07,0.0,WeatherDisplay:10.37,2013-10-17 15:43:00,
2013-10-17 10:48:00,49.0,47.3,29.67,West,265,8.0,14.0,94,0.00,CLR,CLR,0.07,0.0,WeatherDisplay:10.37,2013-10-17 15:48:00,
2013-10-17 10:53:00,49.2,47.5,29.67,West,265,7.0,13.0,94,0.00,CLR,CLR,0.07,0.0,WeatherDisplay:10.37,2013-10-17 15:53:00,
2013-10-17 10:58:00,49.4,47.7,29.67,WSW,253,8.0,14.0,94,0.00,CLR,CLR,0.07,0.0,WeatherDisplay:10.37,2013-10-17 15:58:00,
2013-10-17 11:03:00,49.5,47.6,29.67,WSW,254,7.0,12.0,93,0.00,CLR,CLR,0.07,0.0,WeatherDisplay:10.37,2013-10-17 16:03:00,
2013-10-17 11:08:00,49.7,48.1,29.67,WSW,256,6.0,14.0,94,0.01,RA,RA,0.08,0.0,WeatherDisplay:10.37,2013-10-17 16:08:00,
2013-10-17 11:13:00,50.0,48.3,29.67,WSW,255,8.0,14.0,94,0.00,RA,RA,0.08,0.0,WeatherDisplay:10.37,2013-10-17 16:13:00,
2013-10-17 11:18:00,49.9,47.7,29.67,West,260,8.0,12.0,92,0.00,CLR,CLR,0.08,0.0,WeatherDisplay:10.37,2013-10-17 16:18:00,
2013-10-17 11:23:00,49.9,48.0,29.67,WSW,256,8.0,14.0,93,0.00,CLR,CLR,0.08,0.0,WeatherDisplay:10.37,2013-10-17 16:23:00,
2013-10-17 11:28:00,49.5,46.7,29.67,WSW,251,9.0,13.0,90,0.00,CLR,CLR,0.08,0.0,WeatherDisplay:10.37,2013-10-17 16:28:00,
2013-10-17 11:33:00,49.3,46.8,29.67,WSW,250,7.0,12.0,91,0.00,CLR,CLR,0.08,0.0,WeatherDisplay:10.37,2013-10-17 16:33:00,
2013-10-17 11:38:00,49.2,46.7,29.67,WSW,256,8.0,13.0,91,0.00,CLR,CLR,0.08,0.0,WeatherDisplay:10.37,2013-10-17 16:38:00,
2013-10-17 11:43:00,49.2,47.0,29.67,West,267,5.0,14.0,92,0.00,CLR,CLR,0.08,0.0,WeatherDisplay:10.37,2013-10-17 16:43:00,
2013-10-17 11:48:00,49.2,46.7,29.67,WSW,257,8.0,17.0,91,0.00,CLR,CLR,0.08,0.0,WeatherDisplay:10.37,2013-10-17 16:48:00,
2013-10-17 11:53:00,49.1,46.9,29.67,WSW,248,7.0,12.0,92,0.00,CLR,CLR,0.08,0.0,WeatherDisplay:10.37,2013-10-17 16:53:00,
2013-10-17 11:58:00,49.1,46.6,29.67,West,261,7.0,13.0,91,0.00,CLR,CLR,0.08,0.0,WeatherDisplay:10.37,2013-10-17 16:58:00,
2013-10-17 12:03:00,49.0,46.5,29.67,WSW,255,5.0,13.0,91,0.00,CLR,CLR,0.08,0.0,WeatherDisplay:10.37,2013-10-17 17:03:00,
2013-10-17 12:08:00,48.9,47.0,29.67,WSW,258,6.0,12.0,93,0.00,CLR,CLR,0.08,0.0,WeatherDisplay:10.37,2013-10-17 17:08:00,
2013-10-17 12:13:00,48.8,46.9,29.66,West,269,3.0,8.0,93,0.01,RA,RA,0.09,0.0,WeatherDisplay:10.37,2013-10-17 17:13:00,
2013-10-17 12:18:00,48.6,46.7,29.66,West,264,5.0,7.0,93,0.00,RA,RA,0.09,0.0,WeatherDisplay:10.37,2013-10-17 17:18:00,
2013-10-17 12:23:00,48.3,46.4,29.66,West,273,2.0,5.0,93,0.00,CLR,CLR,0.09,0.0,WeatherDisplay:10.37,2013-10-17 17:23:00,
2013-10-17 12:28:00,48.3,46.7,29.66,West,273,3.0,5.0,94,0.00,CLR,CLR,0.09,0.0,WeatherDisplay:10.37,2013-10-17 17:28:00,
2013-10-17 12:33:00,48.4,46.8,29.66,West,259,2.0,6.0,94,0.00,CLR,CLR,0.09,0.0,WeatherDisplay:10.37,2013-10-17 17:33:00,
2013-10-17 12:38:00,48.6,47.2,29.66,West,269,2.0,6.0,95,0.00,CLR,CLR,0.09,0.0,WeatherDisplay:10.37,2013-10-17 17:38:00,
2013-10-17 12:43:00,49.0,47.6,29.66,WNW,282,2.0,5.0,95,0.00,CLR,CLR,0.09,0.0,WeatherDisplay:10.37,2013-10-17 17:43:00,
2013-10-17 12:48:00,49.0,47.4,29.65,WNW,291,2.0,7.0,94,0.00,CLR,CLR,0.09,0.0,WeatherDisplay:10.37,2013-10-17 17:48:00,
2013-10-17 12:53:00,49.1,47.5,29.65,WNW,288,2.0,6.0,94,0.00,CLR,CLR,0.09,0.0,WeatherDisplay:10.37,2013-10-17 17:53:00,
2013-10-17 12:58:00,49.1,47.2,29.65,West,269,2.0,5.0,93,0.00,CLR,CLR,0.09,0.0,WeatherDisplay:10.37,2013-10-17 17:58:00,
2013-10-17 13:03:00,49.1,46.9,29.65,West,261,3.0,7.0,92,0.00,CLR,CLR,0.09,0.0,WeatherDisplay:10.37,2013-10-17 18:03:00,
2013-10-17 13:08:00,49.2,47.3,29.65,West,260,3.0,10.0,93,0.00,CLR,CLR,0.09,0.0,WeatherDisplay:10.37,2013-10-17 18:08:00,
2013-10-17 13:13:00,49.2,46.7,29.64,West,265,6.0,10.0,91,0.00,CLR,CLR,0.09,0.0,WeatherDisplay:10.37,2013-10-17 18:13:00,
2013-10-17 13:18:00,49.2,46.4,29.64,WSW,256,6.0,9.0,90,0.00,CLR,CLR,0.09,0.0,WeatherDisplay:10.37,2013-10-17 18:18:00,
2013-10-17 13:23:00,49.1,46.0,29.64,West,261,5.0,8.0,89,0.00,CLR,CLR,0.09,0.0,WeatherDisplay:10.37,2013-10-17 18:23:00,
2013-10-17 13:28:00,49.3,46.8,29.64,WSW,258,6.0,9.0,91,0.00,CLR,CLR,0.09,0.0,WeatherDisplay:10.37,2013-10-17 18:28:00,
2013-10-17 13:38:00,51.0,47.9,29.64,WSW,251,5.0,12.0,89,0.00,CLR,CLR,0.09,0.0,WeatherDisplay:10.37,2013-10-17 18:38:00,
2013-10-17 13:43:00,51.9,47.9,29.63,WSW,253,5.0,9.0,86,0.00,CLR,CLR,0.09,0.0,WeatherDisplay:10.37,2013-10-17 18:43:00,
2013-10-17 13:48:00,52.0,47.9,29.63,WSW,253,5.0,9.0,86,0.00,CLR,CLR,0.09,0.0,WeatherDisplay:10.37,2013-10-17 18:48:00,
2013-10-17 13:53:00,51.5,46.8,29.63,WSW,246,5.0,9.0,84,0.00,CLR,CLR,0.09,0.0,WeatherDisplay:10.37,2013-10-17 18:53:00,
2013-10-17 13:58:00,51.1,46.1,29.64,WSW,250,3.0,12.0,83,0.00,CLR,CLR,0.09,0.0,WeatherDisplay:10.37,2013-10-17 18:58:00,
2013-10-17 14:08:00,51.6,47.2,29.64,WSW,253,5.0,9.0,85,0.00,CLR,CLR,0.09,0.0,WeatherDisplay:10.37,2013-10-17 19:08:00,
2013-10-17 14:13:00,51.5,46.2,29.64,WSW,256,3.0,10.0,82,0.00,CLR,CLR,0.09,0.0,WeatherDisplay:10.37,2013-10-17 19:13:00,
2013-10-17 14:18:00,51.1,46.5,29.64,WSW,257,3.0,6.0,84,0.00,CLR,CLR,0.09,0.0,WeatherDisplay:10.37,2013-10-17 19:18:00,
2013-10-17 14:23:00,51.5,47.8,29.64,West,260,3.0,6.0,87,0.00,CLR,CLR,0.09,0.0,WeatherDisplay:10.37,2013-10-17 19:23:00,
2013-10-17 14:28:00,53.1,48.4,29.64,WSW,254,10.0,17.0,84,0.00,CLR,CLR,0.09,0.0,WeatherDisplay:10.37,2013-10-17 19:28:00,
2013-10-17 14:33:00,54.0,47.3,29.64,WSW,251,7.0,16.0,78,0.00,CLR,CLR,0.09,0.0,WeatherDisplay:10.37,2013-10-17 19:33:00,
2013-10-17 14:38:00,53.0,45.7,29.64,WSW,256,8.0,17.0,76,0.00,CLR,CLR,0.09,0.0,WeatherDisplay:10.37,2013-10-17 19:38:00,
2013-10-17 14:43:00,52.4,46.1,29.64,West,263,7.0,16.0,79,0.00,CLR,CLR,0.09,0.0,WeatherDisplay:10.37,2013-10-17 19:43:00,
2013-10-17 14:48:00,53.6,47.5,29.64,West,267,8.0,12.0,80,0.00,CLR,CLR,0.09,0.0,WeatherDisplay:10.37,2013-10-17 19:48:00,
2013-10-17 14:53:00,54.5,48.1,29.64,WSW,255,10.0,15.0,79,0.00,CLR,CLR,0.09,0.0,WeatherDisplay:10.37,2013-10-17 19:53:00,
2013-10-17 14:58:00,54.3,47.2,29.63,WSW,252,8.0,13.0,77,0.00,CLR,CLR,0.09,0.0,WeatherDisplay:10.37,2013-10-17 19:58:00,
2013-10-17 15:03:00,53.9,46.2,29.63,WSW,256,6.0,12.0,75,0.00,CLR,CLR,0.09,0.0,WeatherDisplay:10.37,2013-10-17 20:03:00,
2013-10-17 15:08:00,53.7,46.0,29.63,WSW,255,5.0,10.0,75,0.00,CLR,CLR,0.09,0.0,WeatherDisplay:10.37,2013-10-17 20:08:00,
2013-10-17 15:13:00,54.2,46.1,29.63,WSW,255,7.0,12.0,74,0.00,CLR,CLR,0.09,0.0,WeatherDisplay:10.37,2013-10-17 20:13:00,
2013-10-17 15:18:00,54.5,46.4,29.63,WSW,253,6.0,14.0,74,0.00,CLR,CLR,0.09,0.0,WeatherDisplay:10.37,2013-10-17 20:18:00,
2013-10-17 15:23:00,54.9,46.4,29.63,WSW,253,7.0,14.0,73,0.00,CLR,CLR,0.09,0.0,WeatherDisplay:10.37,2013-10-17 20:23:00,
2013-10-17 15:28:00,54.1,45.3,29.63,West,259,8.0,15.0,72,0.00,CLR,CLR,0.09,0.0,WeatherDisplay:10.37,2013-10-17 20:28:00,
2013-10-17 15:33:00,53.5,45.4,29.63,West,263,6.0,12.0,74,0.00,CLR,CLR,0.09,0.0,WeatherDisplay:10.37,2013-10-17 20:33:00,
2013-10-17 15:38:00,53.7,46.6,29.63,West,274,2.0,12.0,77,0.00,CLR,CLR,0.09,0.0,WeatherDisplay:10.37,2013-10-17 20:38:00,
2013-10-17 15:43:00,55.0,46.8,29.62,West,280,5.0,8.0,74,0.00,CLR,CLR,0.09,0.0,WeatherDisplay:10.37,2013-10-17 20:43:00,
2013-10-17 15:48:00,55.5,45.5,29.63,West,262,6.0,12.0,69,0.00,CLR,CLR,0.09,0.0,WeatherDisplay:10.37,2013-10-17 20:48:00,
2013-10-17 15:53:00,55.2,45.2,29.62,WSW,258,5.0,7.0,69,0.00,CLR,CLR,0.09,0.0,WeatherDisplay:10.37,2013-10-17 20:53:00,
2013-10-17 15:58:00,54.7,44.7,29.63,WSW,255,5.0,12.0,69,0.00,CLR,CLR,0.09,0.0,WeatherDisplay:10.37,2013-10-17 20:58:00,
2013-10-17 16:03:00,54.8,45.5,29.63,West,259,6.0,8.0,71,0.00,CLR,CLR,0.09,0.0,WeatherDisplay:10.37,2013-10-17 21:03:00,
2013-10-17 16:08:00,55.3,44.9,29.62,West,259,6.0,12.0,68,0.00,CLR,CLR,0.09,0.0,WeatherDisplay:10.37,2013-10-17 21:08:00,
2013-10-17 16:13:00,55.3,44.5,29.62,West,260,5.0,12.0,67,0.00,CLR,CLR,0.09,0.0,WeatherDisplay:10.37,2013-10-17 21:13:00,
2013-10-17 16:23:00,54.5,44.5,29.63,West,259,2.0,7.0,69,0.00,CLR,CLR,0.09,0.0,WeatherDisplay:10.37,2013-10-17 21:23:00,
2013-10-17 16:33:00,54.4,44.4,29.63,WSW,247,3.0,6.0,69,0.00,CLR,CLR,0.09,0.0,WeatherDisplay:10.37,2013-10-17 21:33:00,
2013-10-17 16:38:00,54.9,44.6,29.63,WSW,258,3.0,7.0,68,0.00,CLR,CLR,0.09,0.0,WeatherDisplay:10.37,2013-10-17 21:38:00,
2013-10-17 16:43:00,55.4,45.0,29.63,West,267,1.0,6.0,68,0.00,CLR,CLR,0.09,0.0,WeatherDisplay:10.37,2013-10-17 21:43:00,
2013-10-17 16:48:00,55.4,44.6,29.63,West,267,5.0,6.0,67,0.00,CLR,CLR,0.09,0.0,WeatherDisplay:10.37,2013-10-17 21:48:00,
2013-10-17 16:53:00,55.1,43.6,29.63,WSW,257,3.0,7.0,65,0.00,CLR,CLR,0.09,0.0,WeatherDisplay:10.37,2013-10-17 21:53:00,
2013-10-17 16:58:00,55.1,42.7,29.63,WSW,258,3.0,9.0,63,0.00,CLR,CLR,0.09,0.0,WeatherDisplay:10.37,2013-10-17 21:58:00,
2013-10-17 17:03:00,54.8,42.9,29.63,West,262,5.0,9.0,64,0.00,CLR,CLR,0.09,0.0,WeatherDisplay:10.37,2013-10-17 22:03:00,
2013-10-17 17:08:00,54.4,42.9,29.63,West,264,3.0,7.0,65,0.00,CLR,CLR,0.09,0.0,WeatherDisplay:10.37,2013-10-17 22:08:00,
2013-10-17 17:13:00,54.1,43.4,29.63,West,264,2.0,6.0,67,0.00,CLR,CLR,0.09,0.0,WeatherDisplay:10.37,2013-10-17 22:13:00,
2013-10-17 17:18:00,54.0,43.7,29.63,West,267,2.0,4.0,68,0.00,CLR,CLR,0.09,0.0,WeatherDisplay:10.37,2013-10-17 22:18:00,
2013-10-17 17:28:00,54.3,43.6,29.63,West,261,2.0,3.0,67,0.00,CLR,CLR,0.09,0.0,WeatherDisplay:10.37,2013-10-17 22:28:00,
2013-10-17 17:33:00,54.2,43.5,29.63,West,278,2.0,5.0,67,0.00,CLR,CLR,0.09,0.0,WeatherDisplay:10.37,2013-10-17 22:33:00,
2013-10-17 17:38:00,53.8,43.5,29.64,West,279,1.0,3.0,68,0.00,CLR,CLR,0.09,0.0,WeatherDisplay:10.37,2013-10-17 22:38:00,
2013-10-17 17:43:00,53.3,43.4,29.64,West,266,1.0,2.0,69,0.00,CLR,CLR,0.09,0.0,WeatherDisplay:10.37,2013-10-17 22:43:00,
2013-10-17 17:48:00,52.7,43.6,29.64,West,261,1.0,2.0,71,0.00,CLR,CLR,0.09,0.0,WeatherDisplay:10.37,2013-10-17 22:48:00,
2013-10-17 17:53:00,52.3,43.9,29.63,West,261,0.0,1.0,73,0.00,CLR,CLR,0.09,0.0,WeatherDisplay:10.37,2013-10-17 22:53:00,
2013-10-17 18:03:00,51.4,43.4,29.64,West,261,0.0,0.0,74,0.00,CLR,CLR,0.09,0.0,WeatherDisplay:10.37,2013-10-17 23:03:00,
2013-10-17 18:08:00,51.0,43.3,29.64,West,261,0.0,0.0,75,0.00,CLR,CLR,0.09,0.0,WeatherDisplay:10.37,2013-10-17 23:08:00,
2013-10-17 18:13:00,50.5,43.2,29.64,West,261,0.0,0.0,76,0.00,CLR,CLR,0.09,0.0,WeatherDisplay:10.37,2013-10-17 23:13:00,
2013-10-17 18:18:00,49.9,42.9,29.64,West,261,0.0,0.0,77,0.00,CLR,CLR,0.09,0.0,WeatherDisplay:10.37,2013-10-17 23:18:00,
2013-10-17 18:23:00,49.1,42.5,29.64,West,261,0.0,0.0,78,0.00,CLR,CLR,0.09,0.0,WeatherDisplay:10.37,2013-10-17 23:23:00,
2013-10-17 18:28:00,48.5,42.3,29.64,West,261,0.0,0.0,79,0.00,CLR,CLR,0.09,0.0,WeatherDisplay:10.37,2013-10-17 23:28:00,
2013-10-17 18:33:00,47.9,42.1,29.65,West,261,0.0,0.0,80,0.00,CLR,CLR,0.09,0.0,WeatherDisplay:10.37,2013-10-17 23:33:00,
2013-10-17 18:38:00,47.4,42.2,29.65,WNW,295,1.0,3.0,82,0.00,CLR,CLR,0.09,0.0,WeatherDisplay:10.37,2013-10-17 23:38:00,
2013-10-17 18:43:00,46.9,42.3,29.65,NW,323,0.0,1.0,84,0.00,CLR,CLR,0.09,0.0,WeatherDisplay:10.37,2013-10-17 23:43:00,
2013-10-17 18:48:00,46.2,41.3,29.65,NW,323,0.0,1.0,83,0.00,CLR,CLR,0.09,0.0,WeatherDisplay:10.37,2013-10-17 23:48:00,
2013-10-17 18:53:00,45.6,41.3,29.65,NW,323,0.0,0.0,85,0.00,CLR,CLR,0.09,0.0,WeatherDisplay:10.37,2013-10-17 23:53:00,
2013-10-17 18:58:00,45.2,41.2,29.65,NW,323,0.0,0.0,86,0.00,CLR,CLR,0.09,0.0,WeatherDisplay:10.37,2013-10-17 23:58:00,
2013-10-17 19:03:00,44.8,41.2,29.65,NW,323,0.0,0.0,87,0.00,CLR,CLR,0.09,0.0,WeatherDisplay:10.37,2013-10-18 00:03:00,
2013-10-17 19:08:00,44.7,41.3,29.66,NW,323,0.0,0.0,88,0.00,CLR,CLR,0.09,0.0,WeatherDisplay:10.37,2013-10-18 00:08:00,
2013-10-17 19:13:00,44.6,41.2,29.66,NW,323,0.0,0.0,88,0.00,CLR,CLR,0.09,0.0,WeatherDisplay:10.37,2013-10-18 00:13:00,
2013-10-17 19:18:00,44.5,41.4,29.66,NW,323,0.0,1.0,89,0.00,CLR,CLR,0.09,0.0,WeatherDisplay:10.37,2013-10-18 00:18:00,
2013-10-17 19:23:00,43.8,39.9,29.66,NW,323,0.0,0.0,86,0.00,CLR,CLR,0.09,0.0,WeatherDisplay:10.37,2013-10-18 00:23:00,
2013-10-17 19:28:00,43.4,40.6,29.66,NW,323,1.0,2.0,90,0.00,CLR,CLR,0.09,0.0,WeatherDisplay:10.37,2013-10-18 00:28:00,
2013-10-17 19:33:00,43.5,40.7,29.66,NW,323,0.0,2.0,90,0.00,CLR,CLR,0.09,0.0,WeatherDisplay:10.37,2013-10-18 00:33:00,
2013-10-17 19:38:00,43.2,39.9,29.66,NW,323,0.0,0.0,88,0.00,CLR,CLR,0.09,0.0,WeatherDisplay:10.37,2013-10-18 00:38:00,
2013-10-17 19:43:00,42.5,38.9,29.66,NW,323,0.0,0.0,87,0.00,CLR,CLR,0.09,0.0,WeatherDisplay:10.37,2013-10-18 00:43:00,
2013-10-17 19:48:00,42.3,39.3,29.67,NW,323,0.0,0.0,89,0.00,CLR,CLR,0.09,0.0,WeatherDisplay:10.37,2013-10-18 00:48:00,
2013-10-17 19:53:00,42.2,39.8,29.67,NW,323,0.0,0.0,91,0.00,CLR,CLR,0.09,0.0,WeatherDisplay:10.37,2013-10-18 00:53:00,
2013-10-17 19:58:00,41.9,39.2,29.67,NW,323,0.0,0.0,90,0.00,CLR,CLR,0.09,0.0,WeatherDisplay:10.37,2013-10-18 00:58:00,
2013-10-17 20:03:00,41.5,38.8,29.67,NW,323,0.0,0.0,90,0.00,CLR,CLR,0.09,0.0,WeatherDisplay:10.37,2013-10-18 01:03:00,
2013-10-17 20:08:00,41.3,39.2,29.67,NW,323,0.0,0.0,92,0.00,CLR,CLR,0.09,0.0,WeatherDisplay:10.37,2013-10-18 01:08:00,
2013-10-17 20:13:00,41.2,39.1,29.67,NW,323,0.0,1.0,92,0.00,CLR,CLR,0.09,0.0,WeatherDisplay:10.37,2013-10-18 01:13:00,
2013-10-17 20:18:00,41.0,38.9,29.67,NW,323,0.0,0.0,92,0.00,CLR,CLR,0.09,0.0,WeatherDisplay:10.37,2013-10-18 01:18:00,
2013-10-17 20:23:00,41.3,39.4,29.67,NW,323,0.0,1.0,93,0.00,CLR,CLR,0.09,0.0,WeatherDisplay:10.37,2013-10-18 01:23:00,
2013-10-17 20:28:00,41.5,39.3,29.67,NW,323,0.0,0.0,92,0.00,CLR,CLR,0.09,0.0,WeatherDisplay:10.37,2013-10-18 01:28:00,
2013-10-17 20:33:00,41.2,39.1,29.67,NW,323,1.0,2.0,92,0.00,CLR,CLR,0.09,0.0,WeatherDisplay:10.37,2013-10-18 01:33:00,
2013-10-17 20:38:00,41.1,38.7,29.67,NW,323,0.0,2.0,91,0.00,CLR,CLR,0.09,0.0,WeatherDisplay:10.37,2013-10-18 01:38:00,
2013-10-17 20:43:00,40.7,38.0,29.67,NW,323,0.0,0.0,90,0.00,CLR,CLR,0.09,0.0,WeatherDisplay:10.37,2013-10-18 01:43:00,
2013-10-17 20:48:00,40.2,37.5,29.67,NW,323,0.0,0.0,90,0.00,CLR,CLR,0.09,0.0,WeatherDisplay:10.37,2013-10-18 01:48:00,
2013-10-17 20:53:00,40.2,38.3,29.67,NW,323,0.0,1.0,93,0.00,CLR,CLR,0.09,0.0,WeatherDisplay:10.37,2013-10-18 01:53:00,
2013-10-17 20:58:00,40.6,39.0,29.67,NW,323,0.0,0.0,94,0.00,CLR,CLR,0.09,0.0,WeatherDisplay:10.37,2013-10-18 01:58:00,
2013-10-17 21:03:00,40.5,38.4,29.67,NW,323,0.0,0.0,92,0.00,CLR,CLR,0.09,0.0,WeatherDisplay:10.37,2013-10-18 02:03:00,
2013-10-17 21:08:00,40.5,38.6,29.67,NW,323,1.0,2.0,93,0.00,CLR,CLR,0.09,0.0,WeatherDisplay:10.37,2013-10-18 02:08:00,
2013-10-17 21:13:00,40.6,38.7,29.67,NW,323,0.0,1.0,93,0.00,CLR,CLR,0.09,0.0,WeatherDisplay:10.37,2013-10-18 02:13:00,
2013-10-17 21:18:00,40.6,38.7,29.67,NW,323,0.0,0.0,93,0.00,CLR,CLR,0.09,0.0,WeatherDisplay:10.37,2013-10-18 02:18:00,
2013-10-17 21:23:00,40.5,38.6,29.68,NW,323,0.0,0.0,93,0.00,CLR,CLR,0.09,0.0,WeatherDisplay:10.37,2013-10-18 02:23:00,
2013-10-17 21:28:00,40.5,38.6,29.67,NW,323,0.0,0.0,93,0.00,CLR,CLR,0.09,0.0,WeatherDisplay:10.37,2013-10-18 02:28:00,
2013-10-17 21:33:00,40.4,38.5,29.68,NW,323,0.0,0.0,93,0.00,CLR,CLR,0.09,0.0,WeatherDisplay:10.37,2013-10-18 02:33:00,
2013-10-17 21:38:00,40.2,38.0,29.68,NW,323,0.0,0.0,92,0.00,CLR,CLR,0.09,0.0,WeatherDisplay:10.37,2013-10-18 02:38:00,
2013-10-17 21:43:00,40.1,38.2,29.67,NW,323,0.0,1.0,93,0.00,CLR,CLR,0.09,0.0,WeatherDisplay:10.37,2013-10-18 02:43:00,
2013-10-17 21:48:00,40.3,38.7,29.67,NW,323,0.0,1.0,94,0.00,CLR,CLR,0.09,0.0,WeatherDisplay:10.37,2013-10-18 02:48:00,
2013-10-17 21:53:00,40.3,38.4,29.67,NW,323,0.0,0.0,93,0.00,CLR,CLR,0.09,0.0,WeatherDisplay:10.37,2013-10-18 02:53:00,
2013-10-17 21:58:00,40.0,38.1,29.67,NW,323,0.0,0.0,93,0.00,CLR,CLR,0.09,0.0,WeatherDisplay:10.37,2013-10-18 02:58:00,
2013-10-17 22:03:00,40.2,38.6,29.67,NW,323,0.0,0.0,94,0.00,CLR,CLR,0.09,0.0,WeatherDisplay:10.37,2013-10-18 03:03:00,
2013-10-17 22:08:00,40.3,38.8,29.67,NW,323,0.0,0.0,94,0.00,CLR,CLR,0.09,0.0,WeatherDisplay:10.37,2013-10-18 03:08:00,
2013-10-17 22:13:00,40.3,38.7,29.67,NW,323,0.0,0.0,94,0.00,CLR,CLR,0.09,0.0,WeatherDisplay:10.37,2013-10-18 03:13:00,
2013-10-17 22:18:00,40.4,38.8,29.67,NW,323,0.0,0.0,94,0.00,CLR,CLR,0.09,0.0,WeatherDisplay:10.37,2013-10-18 03:18:00,
2013-10-17 22:23:00,40.0,38.1,29.67,NW,323,0.0,0.0,93,0.00,CLR,CLR,0.09,0.0,WeatherDisplay:10.37,2013-10-18 03:23:00,
2013-10-17 22:28:00,40.0,38.4,29.67,NW,323,0.0,0.0,94,0.00,CLR,CLR,0.09,0.0,WeatherDisplay:10.37,2013-10-18 03:28:00,
2013-10-17 22:33:00,40.0,38.5,29.67,NW,323,0.0,0.0,94,0.00,CLR,CLR,0.09,0.0,WeatherDisplay:10.37,2013-10-18 03:33:00,
2013-10-17 22:38:00,40.0,38.1,29.67,NW,323,0.0,0.0,93,0.00,CLR,CLR,0.09,0.0,WeatherDisplay:10.37,2013-10-18 03:38:00,
2013-10-17 22:43:00,39.8,37.9,29.67,NW,323,0.0,0.0,93,0.00,CLR,CLR,0.09,0.0,WeatherDisplay:10.37,2013-10-18 03:43:00,
2013-10-17 22:48:00,39.7,37.8,29.67,NW,323,0.0,0.0,93,0.00,CLR,CLR,0.09,0.0,WeatherDisplay:10.37,2013-10-18 03:48:00,
2013-10-17 22:53:00,39.6,38.0,29.67,NW,323,0.0,0.0,94,0.00,CLR,CLR,0.09,0.0,WeatherDisplay:10.37,2013-10-18 03:53:00,
2013-10-17 22:58:00,39.5,37.9,29.67,NW,323,0.0,0.0,94,0.00,CLR,CLR,0.09,0.0,WeatherDisplay:10.37,2013-10-18 03:58:00,
2013-10-17 23:03:00,39.5,37.9,29.67,NW,323,0.0,0.0,94,0.00,CLR,CLR,0.09,0.0,WeatherDisplay:10.37,2013-10-18 04:03:00,
2013-10-17 23:08:00,39.4,37.9,29.67,NW,323,0.0,0.0,94,0.00,CLR,CLR,0.09,0.0,WeatherDisplay:10.37,2013-10-18 04:08:00,
2013-10-17 23:13:00,39.5,37.9,29.67,NW,323,0.0,0.0,94,0.00,CLR,CLR,0.09,0.0,WeatherDisplay:10.37,2013-10-18 04:13:00,
2013-10-17 23:18:00,39.6,38.0,29.67,NW,323,0.0,0.0,94,0.00,CLR,CLR,0.09,0.0,WeatherDisplay:10.37,2013-10-18 04:18:00,
2013-10-17 23:28:00,39.5,37.9,29.67,NW,323,0.0,0.0,94,0.00,CLR,CLR,0.09,0.0,WeatherDisplay:10.37,2013-10-18 04:28:00,
2013-10-17 23:33:00,39.4,37.8,29.67,NW,323,0.0,0.0,94,0.00,CLR,CLR,0.09,0.0,WeatherDisplay:10.37,2013-10-18 04:33:00,
2013-10-17 23:38:00,39.3,37.7,29.67,NW,323,0.0,0.0,94,0.00,CLR,CLR,0.09,0.0,WeatherDisplay:10.37,2013-10-18 04:38:00,
2013-10-17 23:43:00,39.2,37.6,29.67,NW,323,0.0,0.0,94,0.00,CLR,CLR,0.09,0.0,WeatherDisplay:10.37,2013-10-18 04:43:00,
2013-10-17 23:48:00,39.1,37.5,29.67,NW,323,0.0,0.0,94,0.00,CLR,CLR,0.09,0.0,WeatherDisplay:10.37,2013-10-18 04:48:00,
2013-10-17 23:58:00,38.5,36.7,29.66,NW,323,0.0,0.0,93,0.00,RA,RA,0.00,0.0,WeatherDisplay:10.37,2013-10-18 04:58:00,